Temp
80 75 72 73 73 73 72 69 68 72 74 71 72 73 75 78 80 78 80 81 82 84 85 84 82 83 83 82 83 83 82 78 81 82 79 80 79 81 81 82 79 77 77 75
75 69 72 74 73 71 70 67 67 70 72 70 71 72 74 76 75 79 79 79 80 80 79 79 79 79 78 78 79 80 79 78 80 82 79 77 76 78 79 79 77 77 74 73
70 70 72 71 70 68 69 65 64 64 70 73 70 68 70 74 76 77 78 79 80 78 77 78 77 76 76 76 77 78 78 77 76 76 80 78 78 78 77 76 76 76 74 72
70 72 69 69 66 68 64 68 66 65 64 62 71 60 67 71 71 73 74 76 76 77 78 77 76 75 74 74 76 76 76 76 76 74 74 71 72 71 73 73 74 72 71 71
65 67 67 65 65 68 65 68 65 65 64 66 66 63 64 71 67 69 71 73 74 75 75 74 74 74 74 74 74 75 76 75 74 73 71 71 69 71 71 69 67 68 70 70
70 74 72 68 70 69 70 67 66 66 65 53 62 61 62 66 66 68 71 71 72 73 74 74 75 76 75 74 74 74 75 76 75 73 71 68 66 66 66 67 66 67 67 67
67 67 71 71 67 70 70 64 53 49 51 50 62 59 59 65 68 69 68 69 71 72 72 73 73 74 74 73 73 73 74 73 74 71 70 69 68 67 65 65 65 62 63 63
60 54 66 69 65 62 63 62 50 41 46 52 61 54 61 69 71 70 70 71 71 71 71 72 72 72 73 73 73 72 71 71 73 72 70 69 68 67 65 64 62 60 60 61
58 57 67 67 69 67 62 57 62 51 46 45 58 61 65 68 67 67 68 69 69 69 70 72 73 73 73 72 72 71 70 71 71 69 68 66 66 64 63 61 60 60 60 60
62 55 64 66 68 67 64 66 53 56 39 39 55 56 58 60 63 67 67 67 69 70 70 72 72 72 72 72 72 71 71 70 67 66 65 65 63 63 61 60 58 58 58 59
65 59 59 64 61 60 62 60 58 59 52 43 42 52 66 64 65 64 67 67 68 69 69 71 71 69 71 70 69 69 69 67 65 66 65 63 62 61 60 59 58 58 58 57
63 59 51 58 64 66 64 60 59 48 45 49 45 47 67 67 66 66 67 67 67 68 69 68 68 67 66 66 68 67 66 65 65 64 63 61 61 60 59 58 56 54 54 54
63 56 49 54 59 62 58 61 59 55 50 44 40 47 67 68 67 68 67 66 67 67 68 67 66 66 65 65 66 65 64 63 63 62 61 60 60 57 54 54 52 53 54 54
58 59 52 47 53 60 54 58 60 56 44 46 48 54 62 65 64 66 66 66 67 65 63 63 65 65 65 64 64 63 62 61 62 61 59 58 55 52 53 53 53 53 54 53
61 50 56 57 59 59 57 56 57 54 55 46 51 54 60 63 62 63 65 65 64 63 63 63 61 61 62 63 62 62 61 61 61 58 58 56 55 54 53 53 52 53 53 53
61 50 49 47 57 57 52 57 57 57 56 56 56 54 65 65 66 63 62 61 58 60 60 56 57 60 61 61 61 60 60 59 59 57 56 57 54 52 51 51 51 52 51 51
54 51 46 41 50 47 39 51 55 56 58 56 48 57 64 61 60 56 56 57 58 56 52 51 57 60 61 61 61 59 60 60 59 56 57 54 51 50 50 51 51 50 49 49
49 48 42 37 38 33 53 63 62 57 58 61 60 61 62 59 58 61 58 53 53 51 52 57 60 60 61 62 62 61 61 59 58 57 55 53 51 49 50 51 50 49 49 47
58 49 38 35 40 47 53 55 54 51 51 61 59 60 60 59 57 58 54 54 55 55 58 60 61 61 62 62 62 61 59 58 57 56 55 53 50 50 50 49 48 48 47 46
52 51 45 38 32 32 50 59 60 59 44 59 58 56 54 54 42 48 48 53 56 58 61 61 62 61 61 61 60 59 58 57 55 56 55 53 51 50 49 49 47 48 47 46
37 38 36 37 34 43 58 59 60 40 44 56 55 50 47 42 45 49 51 56 59 60 60 62 61 60 60 60 59 56 56 55 56 57 55 53 51 48 50 48 48 47 46 44
41 37 34 38 33 31 61 58 43 52 55 53 52 48 43 48 51 53 55 56 58 59 61 61 59 58 58 59 57 56 55 57 56 54 52 48 43 46 49 47 47 46 44 41
46 51 47 48 47 61 61 58 60 58 55 53 49 48 51 52 53 54 55 57 58 59 59 59 57 55 56 56 56 53 53 54 51 49 46 44 46 46 47 45 44 44 43 39
57 62 50 49 57 58 58 59 55 56 52 51 49 54 54 52 53 54 56 57 57 58 56 57 55 53 52 54 54 53 52 48 47 44 45 45 44 44 46 45 45 43 39 34
56 56 52 50 57 56 55 51 49 51 50 52 55 55 54 54 54 55 55 55 55 54 55 54 52 52 52 53 52 52 48 47 44 44 44 44 44 43 41 42 43 40 38 34
58 54 47 43 53 47 46 47 48 50 53 54 53 54 56 56 54 54 53 54 54 52 53 53 53 52 52 51 49 46 46 44 41 39 41 42 42 41 38 39 38 34 32 31
MSLP
1008.38 1007.58 1007.32 1008.14 1008.76 1008.67 1008.38 1008.42 1008.12 1008.43 1009.27 1009.14 1008.38 1008.31 1008.83 1009.20 1008.66 1008.78 1008.90 1009.32 1009.72 1010.30 1011.54 1013.00 1014.21 1014.41 1014.58 1015.04 1015.11 1015.37 1015.92 1016.97 1016.91 1016.81 1016.95 1016.72 1016.85 1016.91 1017.07 1017.01 1017.55 1018.04 1018.04 1018.21
1008.47 1008.39 1009.69 1009.86 1009.76 1009.47 1009.29 1009.04 1008.76 1009.26 1009.80 1009.85 1008.72 1008.37 1009.44 1009.76 1010.01 1009.71 1009.88 1010.33 1010.93 1011.89 1013.17 1014.18 1014.70 1015.13 1015.62 1016.01 1016.26 1016.58 1016.93 1017.37 1017.39 1017.19 1017.59 1017.74 1017.77 1017.51 1017.58 1017.64 1017.94 1017.93 1018.05 1018.02
1008.53 1009.90 1010.76 1010.50 1010.19 1009.99 1009.64 1009.86 1010.12 1010.23 1009.85 1009.68 1009.26 1008.60 1009.60 1010.36 1010.66 1011.04 1011.35 1011.70 1012.08 1012.90 1013.81 1014.48 1015.07 1015.83 1016.47 1016.86 1017.04 1017.24 1017.59 1017.85 1018.18 1018.09 1017.65 1017.63 1017.51 1017.29 1017.26 1017.44 1017.72 1017.63 1018.03 1017.90
1010.02 1010.96 1010.98 1010.82 1010.81 1011.00 1010.36 1011.20 1011.26 1010.74 1010.05 1008.37 1008.99 1007.86 1009.24 1010.13 1011.08 1011.72 1012.28 1012.81 1013.38 1013.82 1014.53 1015.06 1015.79 1016.57 1017.24 1017.64 1017.83 1017.92 1018.10 1018.14 1018.41 1018.59 1018.32 1018.49 1018.13 1017.95 1017.90 1017.87 1017.63 1017.90 1018.22 1017.83
1010.83 1011.07 1011.19 1011.06 1011.69 1011.82 1011.25 1011.90 1011.55 1010.97 1010.11 1009.13 1008.74 1008.52 1009.23 1010.17 1011.04 1012.25 1013.12 1013.78 1014.36 1014.84 1015.21 1015.76 1016.43 1017.06 1017.66 1018.04 1018.21 1018.25 1018.10 1018.37 1018.58 1018.78 1018.81 1018.69 1018.44 1018.31 1018.33 1018.35 1018.16 1017.77 1017.58 1017.60
1011.27 1011.94 1011.97 1012.19 1012.28 1012.32 1012.19 1011.74 1011.34 1011.02 1010.15 1009.62 1009.06 1009.39 1009.00 1009.96 1011.48 1012.78 1013.72 1014.65 1015.17 1015.38 1015.82 1016.29 1016.72 1016.92 1017.47 1018.12 1018.35 1018.33 1018.23 1018.16 1018.43 1018.82 1018.93 1019.03 1019.06 1018.92 1018.52 1018.23 1018.03 1017.72 1017.84 1017.60
1011.58 1012.03 1012.49 1012.83 1011.92 1012.10 1011.63 1011.15 1010.70 1010.83 1010.50 1009.96 1010.47 1010.42 1010.82 1011.92 1012.81 1013.54 1014.49 1015.33 1015.74 1015.98 1016.23 1016.42 1016.76 1017.03 1017.62 1018.11 1018.24 1018.37 1018.25 1018.27 1018.38 1018.68 1018.83 1018.94 1018.90 1018.85 1018.58 1018.45 1018.21 1018.34 1018.02 1017.69
1011.38 1012.23 1012.71 1013.23 1013.06 1012.76 1012.41 1012.31 1012.33 1012.04 1011.68 1010.98 1011.30 1010.65 1010.77 1012.64 1013.66 1014.68 1015.14 1015.63 1015.93 1016.28 1016.66 1016.83 1017.17 1017.49 1017.63 1017.86 1018.10 1018.40 1018.43 1018.18 1018.08 1018.21 1018.47 1018.70 1018.82 1018.85 1018.90 1018.85 1019.06 1018.93 1018.42 1017.90
1012.49 1012.77 1013.73 1013.85 1013.55 1013.47 1012.67 1012.95 1013.90 1013.72 1014.24 1013.43 1011.42 1011.45 1012.45 1013.21 1013.98 1014.72 1015.21 1015.65 1016.08 1016.49 1016.83 1016.79 1017.06 1017.27 1017.58 1017.91 1018.03 1018.23 1018.33 1018.27 1018.20 1018.28 1018.44 1018.72 1018.98 1019.13 1019.17 1019.27 1019.26 1018.82 1018.49 1018.00
1014.01 1013.50 1013.93 1014.01 1014.11 1013.99 1013.67 1014.22 1013.94 1014.00 1014.36 1013.55 1011.63 1011.64 1010.87 1013.13 1013.66 1014.18 1014.88 1015.54 1016.15 1016.42 1016.72 1016.90 1017.25 1017.53 1017.80 1018.11 1018.20 1018.27 1018.26 1018.25 1018.52 1018.71 1018.84 1018.94 1019.25 1019.29 1019.50 1019.35 1019.13 1018.97 1018.63 1018.23
1014.70 1014.59 1014.37 1014.44 1014.05 1013.90 1013.90 1014.09 1014.85 1014.98 1015.50 1014.95 1013.92 1012.60 1012.79 1012.98 1013.75 1014.56 1015.22 1015.85 1016.36 1016.64 1017.01 1017.08 1017.41 1017.75 1017.84 1018.12 1018.25 1018.29 1018.44 1018.63 1018.83 1019.00 1019.23 1019.33 1019.36 1019.56 1019.72 1019.46 1019.30 1019.07 1018.70 1018.45
1016.10 1015.62 1014.97 1014.50 1015.13 1015.27 1015.04 1014.98 1015.41 1015.93 1016.28 1016.26 1016.04 1014.48 1013.85 1014.08 1014.60 1015.18 1015.36 1015.98 1016.65 1017.19 1017.13 1017.47 1017.65 1017.97 1018.14 1018.28 1018.39 1018.59 1018.93 1019.03 1019.18 1019.28 1019.27 1019.36 1019.31 1019.43 1019.41 1019.39 1019.55 1019.37 1019.14 1019.11
1016.81 1016.22 1015.45 1014.69 1015.52 1015.73 1015.54 1015.56 1016.31 1017.08 1017.73 1016.90 1016.12 1014.94 1014.25 1014.22 1014.37 1014.76 1015.26 1016.29 1016.89 1017.22 1017.42 1017.88 1018.08 1018.05 1018.10 1018.18 1018.45 1018.89 1019.20 1019.46 1019.72 1019.64 1019.45 1019.25 1019.14 1019.66 1019.99 1019.98 1020.13 1019.64 1019.30 1018.94
1018.03 1017.05 1016.76 1016.35 1015.88 1015.87 1015.75 1015.91 1016.13 1016.61 1017.12 1016.60 1015.85 1014.72 1013.98 1013.95 1014.66 1015.31 1015.97 1016.48 1016.94 1017.53 1017.83 1018.07 1018.13 1018.43 1018.52 1018.68 1018.69 1019.17 1019.44 1019.77 1019.67 1019.59 1019.49 1019.33 1019.85 1020.40 1020.19 1020.08 1019.69 1019.38 1019.04 1018.74
1018.18 1018.02 1017.67 1017.43 1016.97 1016.59 1016.24 1016.12 1016.10 1016.04 1016.21 1016.29 1015.78 1015.05 1014.60 1014.92 1015.62 1016.52 1016.83 1017.15 1017.52 1017.75 1018.06 1018.44 1018.88 1018.99 1019.05 1018.89 1019.11 1019.29 1019.57 1019.49 1019.53 1019.63 1019.39 1019.33 1019.72 1019.94 1019.92 1019.71 1019.46 1019.16 1018.95 1018.77
1018.78 1019.04 1019.28 1018.55 1017.82 1017.26 1016.76 1016.19 1015.81 1015.72 1015.99 1015.74 1015.53 1015.29 1015.22 1016.06 1016.33 1017.02 1017.47 1018.17 1018.44 1018.47 1019.06 1019.85 1019.88 1019.43 1019.35 1019.30 1019.13 1019.29 1019.31 1019.36 1019.41 1019.21 1019.07 1019.08 1019.51 1019.86 1019.86 1019.52 1019.31 1018.97 1018.83 1018.70
1019.46 1019.93 1020.22 1019.72 1019.15 1018.42 1017.26 1016.25 1015.81 1015.82 1016.02 1016.07 1015.88 1015.72 1015.94 1016.61 1017.33 1018.39 1018.84 1019.13 1019.01 1019.74 1020.51 1020.57 1019.80 1019.33 1019.16 1018.96 1019.01 1019.05 1018.84 1018.82 1018.87 1018.97 1018.83 1019.02 1019.61 1019.62 1019.56 1019.32 1019.10 1018.90 1018.83 1018.70
1020.40 1020.96 1021.64 1021.51 1020.65 1018.96 1017.01 1016.48 1016.18 1016.20 1016.32 1016.15 1016.05 1016.11 1016.72 1017.69 1018.64 1018.96 1019.42 1020.16 1020.54 1020.82 1020.64 1019.95 1019.36 1019.13 1018.84 1018.72 1018.67 1018.65 1018.57 1018.45 1018.36 1018.07 1018.20 1018.98 1019.36 1019.45 1019.18 1019.04 1018.88 1018.86 1018.77 1018.62
1020.65 1021.60 1022.43 1022.53 1021.10 1019.13 1017.36 1017.03 1016.97 1017.05 1016.95 1016.72 1016.86 1017.33 1018.12 1018.89 1019.80 1019.54 1020.81 1021.09 1020.68 1020.48 1020.03 1019.58 1019.35 1019.18 1018.77 1018.51 1018.41 1018.13 1018.22 1018.06 1017.87 1017.71 1017.86 1018.32 1019.06 1018.91 1018.71 1018.73 1018.74 1018.76 1018.53 1018.31
1021.67 1022.22 1022.51 1022.83 1021.84 1019.67 1017.64 1017.23 1017.96 1017.83 1017.35 1017.81 1018.77 1019.13 1019.58 1020.14 1020.19 1020.56 1021.55 1021.24 1020.65 1020.22 1019.59 1019.28 1018.97 1019.01 1018.63 1018.24 1018.17 1017.88 1017.53 1017.39 1017.22 1017.08 1017.33 1017.91 1018.40 1018.49 1018.32 1018.46 1018.50 1018.45 1018.15 1017.86
1022.25 1022.48 1022.38 1022.21 1021.41 1019.55 1018.03 1018.16 1018.40 1018.47 1019.10 1019.30 1019.91 1020.84 1021.41 1021.91 1022.09 1021.87 1021.86 1020.93 1020.34 1019.76 1019.25 1018.97 1018.73 1018.43 1018.41 1018.33 1018.10 1017.68 1017.13 1016.83 1016.64 1016.71 1017.11 1017.40 1018.04 1018.47 1018.22 1018.37 1018.21 1017.98 1017.76 1017.82
1020.46 1021.28 1021.54 1021.48 1020.70 1019.32 1018.23 1018.55 1019.10 1019.46 1019.61 1020.33 1021.05 1021.94 1022.47 1022.37 1021.80 1021.37 1020.94 1020.44 1019.95 1019.27 1018.66 1018.47 1018.51 1018.59 1018.77 1018.69 1018.31 1017.64 1016.86 1016.62 1016.77 1016.99 1017.24 1017.98 1018.70 1018.61 1018.13 1018.13 1017.87 1017.74 1017.81 1017.87
1018.98 1019.16 1019.47 1019.58 1018.58 1017.79 1018.28 1018.68 1019.05 1019.70 1020.20 1021.08 1021.88 1022.34 1022.16 1021.66 1021.32 1021.12 1020.73 1020.15 1019.53 1019.17 1018.87 1018.83 1018.94 1018.86 1018.89 1018.84 1018.57 1018.06 1017.66 1017.63 1017.80 1017.80 1017.90 1018.24 1018.04 1018.03 1017.85 1017.95 1017.81 1017.76 1017.87 1018.21
1018.21 1018.09 1018.54 1019.11 1018.29 1018.22 1018.57 1019.17 1020.33 1020.84 1021.40 1021.82 1021.96 1021.66 1021.62 1021.47 1021.34 1020.95 1020.46 1019.97 1019.65 1019.39 1019.22 1019.21 1019.05 1018.90 1018.84 1018.75 1018.50 1018.39 1018.36 1018.70 1018.47 1018.32 1018.10 1018.05 1017.97 1017.86 1017.74 1017.84 1017.65 1017.85 1018.32 1018.91
1018.11 1018.02 1018.25 1018.19 1018.30 1018.71 1019.70 1020.50 1021.31 1021.61 1022.01 1021.90 1021.52 1021.57 1021.57 1021.42 1021.10 1020.77 1020.45 1020.29 1020.12 1019.93 1019.63 1019.72 1019.37 1018.98 1018.74 1018.67 1018.63 1018.53 1018.98 1019.03 1018.94 1018.67 1018.28 1018.02 1017.83 1017.91 1018.25 1018.30 1018.07 1018.38 1018.72 1019.30
1017.93 1017.53 1017.80 1018.08 1018.97 1019.90 1020.74 1021.48 1021.70 1021.98 1021.62 1021.45 1021.63 1021.57 1021.45 1021.30 1021.02 1020.92 1020.86 1020.75 1020.37 1020.14 1019.93 1019.27 1018.93 1018.66 1018.60 1018.64 1018.81 1019.25 1019.42 1019.55 1019.55 1019.20 1018.76 1018.29 1018.29 1018.37 1018.69 1018.65 1018.62 1019.03 1019.15 1019.42
Wind_Speed
5 12 5 11 7 8 5 5 4 4 5 7 4 6 5 4 3 5 4 4 4 6 13 12 7 6 8 5 5 6 6 6 4 3 4 4 3 4 5 5 6 6 7 9
9 6 5 2 3 3 3 5 2 1 3 6 3 5 5 8 7 8 9 10 10 12 12 11 12 12 11 9 8 6 6 5 4 2 5 3 5 5 6 5 7 8 6 8
9 10 2 3 2 7 3 7 6 10 7 10 9 8 11 9 12 11 13 14 13 11 11 10 11 11 10 10 8 8 7 7 7 7 3 5 5 5 5 6 9 9 11 11
6 4 0 1 2 8 9 4 8 10 9 8 12 4 9 12 11 10 10 10 9 9 9 9 10 10 10 9 7 7 6 6 6 7 6 5 5 7 8 8 9 11 14 14
6 3 1 1 5 7 6 8 8 8 10 11 11 10 12 11 9 9 9 9 8 8 8 9 9 9 9 7 6 5 5 5 6 5 5 6 9 9 9 9 10 12 12 13
8 2 4 7 5 4 7 8 6 7 6 6 3 8 14 8 8 6 9 8 7 8 7 6 6 4 7 5 5 5 6 7 5 7 8 8 9 9 9 10 10 9 10 11
6 4 5 6 10 6 8 7 4 4 4 2 6 7 11 8 7 7 7 7 7 7 6 5 5 6 5 5 6 7 9 10 9 8 8 9 10 11 11 12 10 14 11 11
4 8 6 7 6 7 5 7 4 5 3 5 7 6 9 10 9 8 6 5 5 5 4 4 3 5 7 7 7 7 10 11 12 11 11 10 12 9 10 12 12 11 11 11
4 6 5 5 5 7 4 4 3 2 1 3 5 7 10 11 9 5 4 3 5 4 4 4 6 7 8 10 10 8 11 14 14 14 11 12 11 12 12 14 13 11 13 11
4 2 1 3 4 3 7 3 4 1 3 4 1 7 4 12 9 8 4 8 7 4 4 7 8 10 9 11 10 10 11 13 12 10 9 10 12 13 13 12 14 14 12 12
6 4 5 4 2 9 2 1 4 5 4 5 5 4 9 5 3 5 8 9 10 7 8 9 10 10 10 9 10 12 14 13 12 12 12 12 12 12 11 11 11 11 12 11
6 2 3 5 4 4 5 4 6 3 4 3 4 8 8 6 3 3 9 8 4 8 10 10 9 8 8 10 12 12 10 10 11 12 13 13 11 10 11 12 12 10 11 11
6 1 4 5 8 5 5 1 2 2 3 10 7 6 2 4 5 6 10 7 6 9 13 13 12 13 11 11 11 9 10 11 13 13 13 13 12 12 11 11 10 10 10 10
3 2 4 6 10 9 8 10 9 9 8 10 11 16 15 10 10 13 12 4 10 11 11 10 13 15 12 11 8 9 10 12 12 12 12 12 10 9 8 8 8 10 10 12
4 3 5 9 12 12 12 13 13 14 14 14 16 17 16 13 11 11 9 10 14 16 15 14 15 13 11 10 10 10 11 12 11 12 11 11 5 8 8 10 10 10 12 12
2 0 4 4 6 9 13 16 17 16 10 14 13 16 8 8 9 10 15 16 15 16 14 14 14 13 12 12 11 11 12 12 10 10 11 9 7 9 10 10 11 11 12 12
2 1 3 4 11 13 6 3 1 4 6 8 11 11 11 10 13 15 12 14 12 12 11 13 13 12 12 12 11 13 12 12 12 11 12 9 8 9 10 11 11 11 11 12
4 2 2 4 6 3 5 6 12 10 8 8 11 11 8 10 17 22 10 10 10 8 12 14 12 13 13 14 13 14 13 14 14 14 8 8 8 9 10 10 11 11 11 11
3 4 2 2 5 13 10 4 4 9 13 13 7 7 14 17 15 6 6 8 12 12 12 12 13 15 16 15 14 13 15 15 16 14 12 7 8 11 9 10 10 10 10 11
4 1 4 3 4 4 4 1 0 5 12 9 9 16 17 16 13 9 9 15 13 13 13 14 14 16 16 17 16 16 17 16 17 13 8 9 9 10 9 9 10 10 11 11
3 1 5 6 6 8 9 3 4 6 4 11 13 10 9 8 9 12 13 12 13 14 16 15 15 14 17 17 18 19 18 16 15 11 9 9 9 11 8 8 10 11 11 11
8 6 4 4 4 7 3 5 1 8 11 8 8 6 6 10 11 10 11 13 15 16 17 16 15 15 17 18 18 20 19 18 17 15 11 8 6 9 7 9 10 11 12 11
5 7 4 9 6 9 7 10 7 5 7 7 4 4 10 10 11 12 13 15 16 18 17 16 16 17 16 17 17 19 18 15 15 14 11 9 8 7 10 7 11 8 10 8
9 12 6 8 8 12 8 8 9 8 5 1 5 8 8 10 11 14 15 16 17 17 17 16 17 17 17 17 18 16 16 14 14 12 12 9 7 7 8 7 8 7 7 6
7 4 9 13 16 12 4 8 6 4 3 6 3 6 8 10 14 15 16 17 17 17 16 17 16 15 17 17 17 16 14 11 12 12 10 10 6 5 5 7 7 7 5 3
10 14 9 8 6 3 2 5 2 5 4 4 6 8 11 14 16 17 16 16 16 17 17 16 18 18 18 17 16 14 11 10 10 10 9 7 6 5 5 6 7 4 1 3
Wind_Direction
217 251 23 36 357 355 9 297 280 109 67 298 192 266 65 35 75 118 135 167 160 156 72 73 69 81 80 79 92 66 113 42 300 304 323 304 295 326 288 308 9 325 346 324
218 75 67 14 7 328 288 298 74 125 122 298 204 163 95 80 71 68 97 103 106 105 94 100 85 74 65 62 62 76 80 50 13 17 349 340 321 309 326 289 348 300 334 304
26 85 111 295 27 324 97 333 15 316 311 260 265 174 153 108 98 94 77 68 73 99 112 94 78 70 67 60 59 67 68 58 45 356 10 345 302 268 303 329 305 311 307 307
72 99 194 284 55 334 296 40 307 284 268 256 208 167 151 142 115 102 97 86 82 92 84 73 79 79 81 76 73 76 55 48 44 30 8 346 319 309 329 292 313 330 310 294
103 150 252 308 12 328 22 321 294 281 265 276 196 258 116 156 133 112 85 67 64 71 61 69 76 83 73 66 60 40 23 29 30 359 332 319 318 324 325 312 302 322 307 321
101 91 15 8 300 288 298 263 237 256 250 241 86 282 146 139 103 127 90 67 58 61 76 82 81 93 102 78 39 10 345 343 344 338 334 333 321 306 312 317 315 317 324 315
169 84 110 350 297 182 303 291 260 209 192 278 91 268 66 96 94 66 84 85 65 62 73 72 59 36 39 4 355 340 343 335 338 331 317 314 315 318 314 323 326 325 318 318
233 164 1 9 16 338 358 322 2 300 339 333 144 264 123 121 116 123 112 98 60 70 78 51 15 337 346 343 333 330 325 319 332 329 327 325 326 327 328 334 329 318 315 316
305 102 124 49 19 321 21 33 1 228 119 247 274 130 154 156 145 142 122 341 23 4 339 332 350 350 346 340 337 339 330 326 323 325 336 332 328 327 328 332 325 323 321 320
55 210 76 87 259 104 348 39 248 127 293 288 287 304 3 170 199 168 328 5 331 323 306 339 331 335 338 335 331 323 315 321 338 326 324 331 329 332 333 326 329 327 322 333
360 301 116 251 26 354 173 187 319 312 336 298 302 312 32 41 46 4 328 342 331 337 326 328 337 335 325 321 317 330 333 334 327 338 337 330 327 334 326 324 324 321 322 325
39 358 282 14 70 348 326 338 316 302 307 248 313 290 66 46 34 286 301 326 333 304 324 321 326 349 332 322 327 334 328 330 336 330 332 323 319 316 318 330 347 337 336 329
16 92 289 184 162 171 278 221 332 351 298 255 254 266 162 224 242 325 341 13 307 323 332 337 328 318 320 329 325 326 334 335 332 325 322 321 330 351 332 331 326 317 312 308
307 323 302 314 322 323 289 269 262 254 256 267 274 289 295 335 346 352 338 328 321 321 320 320 333 327 330 308 327 329 324 325 324 326 319 324 351 321 314 297 299 323 319 313
315 271 328 299 300 304 301 289 278 266 259 254 278 286 310 331 356 330 325 319 323 328 331 338 326 323 317 315 320 314 324 319 324 317 318 323 328 302 321 315 313 320 325 318
61 235 334 276 293 311 305 289 276 264 282 279 294 298 356 327 327 319 339 335 317 322 342 337 314 313 312 315 308 323 306 323 317 310 316 312 328 326 310 315 314 320 321 319
313 295 344 276 337 322 276 222 73 302 262 266 284 288 317 318 355 350 329 305 320 345 329 303 297 302 307 309 321 302 317 312 319 314 304 339 312 312 314 313 320 320 320 315
142 139 63 292 305 299 61 258 298 290 290 283 298 309 353 356 342 325 18 3 335 313 295 286 309 309 314 312 302 311 318 315 307 292 304 295 299 303 296 313 311 324 319 320
241 156 132 266 281 294 297 74 3 328 302 296 322 359 333 344 320 313 42 332 311 297 289 309 318 314 313 311 302 314 313 306 309 317 318 301 285 280 303 305 323 315 314 310
74 59 238 170 259 267 22 46 307 304 279 47 348 328 333 330 311 333 342 321 315 303 307 310 313 313 312 313 315 308 306 308 303 303 304 301 289 282 287 303 312 308 307 313
115 198 217 221 252 267 290 53 296 283 2 324 352 6 358 324 316 311 291 302 298 307 304 310 303 317 318 326 319 310 304 299 305 322 307 291 305 294 298 306 297 308 319 323
182 180 198 215 245 266 178 217 152 303 309 13 34 41 334 287 286 293 305 313 309 305 311 322 327 323 324 320 321 315 313 330 340 337 327 338 336 298 301 298 306 318 331 326
253 213 247 201 232 308 273 280 343 344 13 7 8 294 272 296 316 324 313 308 318 325 324 327 323 320 322 327 324 322 326 326 324 316 304 280 274 262 273 310 302 332 311 343
280 262 217 283 266 295 324 351 57 42 24 337 242 283 315 315 316 308 319 323 325 325 326 321 323 323 321 325 326 329 331 333 316 323 316 305 290 288 319 310 323 324 343 336
261 284 243 259 290 335 57 63 68 326 288 255 291 313 313 312 316 321 323 325 325 323 327 328 315 312 318 325 325 330 340 322 330 319 317 305 295 310 316 319 326 333 340 341
250 257 255 267 331 186 44 84 89 257 257 347 320 320 318 322 320 326 323 321 321 329 312 309 316 320 323 326 337 336 326 343 323 320 312 332 331 336 345 313 324 105 75 199